CAPE
41 2 0 0 0 0 2 0 49 51 94 99 47 14 28 42 52 11 5 9 50 37 4 1 3 0 0 0 0 3 1 0 0 0 0 0 0 0 0 17 0 0 0
23 249 487 51 1 1 3 1 1 5 9 48 3 8 23 56 8 4 8 17 11 1 0 0 1 0 0 0 0 0 1 0 0 0 0 0 0 0 0 0 0 0 0
0 0 54 276 1 1 1 1 10 0 2 16 10 20 68 31 1 0 0 0 0 0 0 0 0 0 0 0 0 0 0 0 0 0 0 0 0 0 0 0 0 0 0
0 0 0 9 15 1 1 0 0 0 2 1 1 3 7 0 0 0 0 0 0 0 0 0 0 0 0 0 0 0 0 0 0 0 0 0 0 0 0 0 0 0 0
0 0 1 16 359 2 0 0 0 5 4 1 1 30 10 9 2 1 0 0 0 0 0 0 0 0 0 0 0 0 0 0 0 0 0 0 0 0 0 0 0 0 0
0 1 1 120 468 31 3 2 1 4 9 1 2 6 19 26 0 0 0 0 0 0 0 0 4 64 9 1 0 0 0 0 0 0 0 0 0 0 0 0 0 0 17
0 0 0 78 95 43 8 2 3 5 3 3 3 11 8 16 0 0 0 0 0 0 1 0 1 4 0 0 0 0 0 0 0 0 0 0 0 0 0 0 0 1 0
0 0 1 2 128 82 6 2 2 3 3 2 2 22 23 3 0 0 0 0 0 20 10 0 2 4 0 0 0 0 0 0 0 0 0 0 0 0 1 6 11 3 0
0 0 2 1 3 11 57 34 24 13 19 5 4 7 6 1 0 0 0 0 0 11 5 0 0 1 0 0 0 0 0 0 0 0 0 0 0 0 0 0 0 11 14
1 0 1 1 4 1 1 1 1 1 4 7 9 3 1 4 0 0 0 6 9 5 0 0 0 0 0 0 0 0 0 0 0 0 0 0 0 0 0 0 0 0 0
0 0 0 0 1 1 1 1 2 2 2 7 10 5 1 0 0 0 0 0 0 0 0 0 0 0 0 0 0 0 0 0 0 0 0 0 0 0 0 0 0 0 0
0 0 0 0 1 0 4 1 1 2 2 3 16 8 3 1 0 1 0 0 0 0 0 0 0 0 0 0 0 0 0 0 0 1 3 0 0 0 0 0 0 0 0
0 0 0 1 1 1 3 2 2 1 13 20 21 5 0 0 0 0 0 0 0 0 0 0 0 0 0 0 0 0 0 0 0 6 2 0 0 0 0 0 0 0 0
48 1 0 1 2 1 1 1 2 5 15 20 9 0 0 0 0 0 0 0 0 0 0 0 0 0 0 0 0 0 0 0 2 9 19 9 0 0 0 0 0 0 0
211 87 3 1 1 1 1 1 1 0 2 12 2 0 0 0 0 0 0 0 0 0 0 0 0 0 0 0 0 0 0 0 0 7 11 9 2 7 0 0 0 0 0
486 273 55 1 1 1 1 1 0 0 0 0 0 0 0 0 0 0 0 0 0 0 0 0 0 0 0 0 0 0 0 0 0 2 1 3 3 6 6 0 0 0 0
423 250 72 29 3 1 1 1 0 0 0 0 0 0 0 0 0 0 0 0 0 0 15 3 4 2 0 0 1 0 0 0 0 0 0 0 3 6 0 21 16 8 0
474 158 75 87 37 2 0 0 1 2 0 0 0 0 0 0 0 0 0 0 0 0 0 5 16 10 22 7 2 0 2 18 0 0 0 0 0 0 0 0 0 0 8
418 171 54 49 35 1 1 0 0 0 0 0 0 0 0 0 0 0 0 0 0 0 0 0 2 12 3 1 3 8 10 15 0 0 0 0 0 0 0 0 6 0 39
262 189 39 18 58 1 0 0 0 0 0 0 0 0 1 0 0 0 0 0 0 0 0 0 0 2 12 16 12 8 10 9 7 0 0 0 0 3 15 96 189 282 171
165 0 6 31 11 17 1 0 0 0 0 0 0 0 0 0 0 1 0 0 0 0 0 0 0 0 1 4 7 9 0 0 2 14 19 11 28 98 156 232 285 327 388
276 124 17 2 1 2 3 0 0 0 0 0 0 0 0 0 0 0 0 0 0 0 0 0 0 2 0 0 0 0 2 0 1 0 17 18 24 18 58 63 112 104 84
230 97 12 13 31 25 22 24 22 5 0 0 0 0 1 0 0 5 13 15 1 0 0 0 0 0 0 0 0 0 0 0 0 0 1 0 4 4 2 0 10 21 52
5 31 3 0 13 8 7 13 97 14 14 18 10 12 28 27 2 13 7 9 13 35 16 0 0 0 0 0 0 0 0 0 0 0 0 0 0 0 0 1 9 24 43
14 4 17 2 7 48 29 74 142 122 133 67 71 142 112 31 43 29 37 33 35 5 0 0 0 0 0 0 0 0 0 0 0 0 0 0 0 1 0 16 30 69 63
127 137 111 34 26 65 104 128 157 205 235 157 199 140 163 130 153 146 62 15 7 22 11 12 0 1 12 1 0 0 0 0 0 0 0 16 17 12 20 28 24 43 47
CIN
-416 -199 0 0 0 0 0 0 -221 -267 -247 -240 -225 -133 -63 -58 -17 -68 -44 -10 -6 -20 -8 -2 -20 0 0 0 0 0 0 0 0 0 0 0 0 0 -17 -167 0 0 0
-632 -323 -187 -324 0 0 0 0 0 -158 -204 -214 -105 -48 -17 -43 -68 -51 -75 -7 -9 -4 0 0 -80 0 0 0 0 0 0 0 0 0 0 0 0 0 0 0 0 0 0
0 0 -275 -185 0 0 0 0 -245 0 0 -160 -151 -42 -50 -72 0 0 0 0 0 0 0 0 0 0 0 0 0 0 0 0 0 0 0 0 0 0 0 0 0 0 0
0 0 0 -329 -129 0 0 0 0 0 0 0 0 -32 -61 0 0 0 0 0 0 0 0 0 0 0 0 0 0 0 0 0 0 0 0 0 0 0 0 0 0 0 0
0 0 -1 -223 -149 0 0 0 0 0 0 -82 -13 -99 -128 -144 0 0 0 0 0 0 0 0 0 0 0 0 0 0 0 0 0 0 0 0 0 0 0 0 0 0 0
0 0 0 -232 -117 -255 -2 0 0 0 0 0 0 -81 -149 -98 0 0 0 0 0 0 0 0 -75 -54 -108 -138 0 0 0 0 0 0 0 0 0 0 0 0 0 0 -49
0 0 0 -245 -207 -243 -245 0 0 0 0 0 -131 -75 -62 -90 0 0 0 0 0 0 -55 -22 -67 -59 -22 0 0 0 0 0 0 0 0 0 0 0 0 0 0 -46 0
0 0 -7 0 -144 -168 -91 0 0 0 0 0 0 -66 -42 -52 0 0 0 0 0 -76 -62 -49 -47 -50 0 0 0 0 0 0 0 0 0 0 0 0 -15 -75 -188 -80 0
0 0 -2 -2 -58 -175 -154 -174 -184 -188 -143 -2 0 -7 -1 0 0 0 0 0 0 -74 -73 -17 -48 -63 0 0 0 0 0 0 0 0 0 0 0 0 0 0 0 -91 -72
0 0 0 0 0 -2 0 0 0 0 -19 -16 -68 -58 0 -97 0 0 0 -32 -23 -51 0 0 0 0 0 0 0 0 0 0 0 0 0 0 0 0 0 0 0 0 0
0 0 0 0 0 -22 0 0 0 0 0 -82 -75 -107 -9 0 0 0 0 0 0 0 0 0 0 0 0 0 0 0 0 0 0 0 0 0 0 0 0 0 0 0 0
0 0 0 0 0 0 -16 -2 0 -8 -8 -10 -80 -113 -43 -53 0 0 0 0 0 0 0 0 0 0 0 0 0 0 0 0 0 -53 -59 0 0 0 0 0 0 0 0
0 0 0 0 0 0 0 0 0 0 -12 -18 -30 -42 -12 0 0 0 0 0 0 0 0 0 0 0 0 0 0 0 0 0 -7 -91 -56 0 0 0 0 0 0 0 0
-303 -51 0 0 0 0 0 0 0 -34 -31 -38 -63 -36 0 0 0 0 0 0 0 0 0 0 0 0 0 0 0 0 0 0 -24 -98 -75 -81 0 0 0 0 0 0 0
-252 -260 -194 -17 0 0 0 0 0 -21 -74 -86 -99 0 0 0 0 0 0 0 0 0 0 0 0 0 0 0 0 0 0 0 0 -161 -149 -128 -58 -124 0 0 0 0 0
-241 -220 -251 0 0 0 0 0 0 0 0 0 0 0 0 0 0 0 0 0 0 0 0 0 0 0 0 0 0 0 0 0 0 -179 -196 -153 -134 -129 -110 0 0 0 0
-165 -205 -242 -248 -236 0 0 0 0 0 0 0 0 0 0 0 0 0 0 0 0 0 -106 -161 -175 -192 0 -4 -78 0 0 0 0 0 0 -3 -166 -151 0 -140 -148 -137 0
-157 -183 -234 -223 -211 -143 0 0 -137 -70 0 0 0 0 0 0 0 0 0 0 0 0 0 -109 -119 -115 -137 -131 -143 0 -186 -173 0 0 0 0 0 0 0 0 0 0 -32
-143 -161 -174 -184 -187 -48 -40 0 0 0 0 0 0 0 0 0 0 0 0 0 0 0 0 0 -165 -182 -189 -93 -133 -172 -179 -177 0 0 0 0 0 0 0 0 -44 0 -79
-123 -150 -104 -87 -115 0 0 0 0 0 0 0 0 0 -23 0 0 0 0 0 0 0 -10 0 0 -196 -216 -207 -203 -210 -202 -165 -182 0 0 0 0 -163 -120 -93 -92 -78 -105
-140 0 -72 -61 -87 -120 -2 0 0 0 0 0 0 0 0 0 0 -220 0 0 0 0 0 0 -4 -85 -329 -281 -229 -219 -24 -9 -129 -205 -197 -182 -145 -109 -111 -88 -76 -79 -72
-84 -99 -113 -71 -28 0 0 0 0 0 0 0 0 0 0 0 0 0 0 0 0 0 0 0 0 -219 0 0 0 0 -262 -112 -87 -64 -194 -197 -176 -167 -128 -114 -102 -105 -115
-127 -107 -101 -91 -82 -56 -37 -99 -118 -73 0 0 0 0 -18 0 0 -200 -235 -269 -108 0 0 0 0 0 0 0 0 0 0 0 0 0 -113 0 -88 -200 -70 0 -177 -145 -125
-47 -202 -21 0 -105 -99 -74 -37 -55 -116 -122 -99 -154 -174 -188 -221 -211 -307 -358 -344 -275 -309 -287 0 0 0 0 0 0 0 0 0 0 0 0 0 0 0 0 0 -167 -167 -163
-206 -206 -147 -162 -13 -53 -67 -56 -39 -46 -57 -88 -116 -132 -158 -198 -212 -240 -244 -252 -249 -278 0 0 0 0 0 0 0 0 0 0 0 0 0 0 0 -21 0 -212 -185 -144 -132
-85 -37 -84 -131 -107 -78 -55 -51 -46 -52 -67 -98 -121 -151 -154 -160 -159 -160 -184 -220 -205 -166 -105 -194 -43 -70 -285 -82 0 -51 0 0 0 0 -27 -224 -208 -187 -172 -178 -183 -133 -143
Wind_Speed
2 3 4 5 5 6 8 8 7 7 7 8 7 6 5 4 6 4 4 6 8 6 4 5 6 5 5 5 5 5 4 2 3 2 1 3 4 5 5 4 3 3 3
2 3 4 5 6 9 11 10 10 9 9 9 7 7 9 7 7 7 8 8 8 8 7 7 8 4 6 6 5 7 7 6 4 4 3 1 3 4 4 5 4 4 3
1 1 4 5 7 9 9 10 9 4 5 9 7 5 4 8 7 6 7 6 7 7 7 7 6 6 5 3 3 6 6 6 3 4 4 2 1 2 2 2 3 3 4
4 3 4 6 7 9 9 7 5 6 5 2 5 8 7 6 6 6 6 6 5 5 6 6 6 6 5 5 5 5 5 6 4 3 2 3 2 2 1 3 3 2 2
4 5 7 7 7 9 8 8 7 8 8 8 7 6 6 6 4 7 7 7 6 5 4 4 5 5 8 7 4 5 6 4 5 5 4 2 3 3 3 2 2 1 1
4 6 7 8 6 7 8 8 6 6 8 6 6 7 6 4 9 10 7 7 6 7 7 4 4 7 6 8 8 8 6 7 4 3 2 3 3 3 3 3 3 2 2
4 6 5 6 5 5 6 8 7 7 6 7 6 6 7 7 11 11 10 4 6 6 6 5 5 5 6 5 5 8 6 2 3 5 4 4 4 5 5 4 3 3 3
5 5 4 5 5 5 6 7 7 6 8 6 7 8 7 7 12 10 12 7 6 6 5 6 6 6 5 6 5 5 4 4 4 2 4 4 2 5 3 4 5 3 2
6 5 5 5 4 4 6 6 7 6 6 7 8 9 10 8 13 13 11 7 6 6 5 6 6 6 7 9 7 6 4 4 3 4 3 1 6 6 6 5 4 4 3
9 7 7 5 5 4 4 5 4 4 5 5 7 8 10 8 13 13 11 5 6 4 4 5 8 7 8 10 7 6 5 6 4 4 3 4 4 5 9 5 5 4 3
6 6 6 6 5 3 4 3 5 5 6 6 7 6 7 7 8 13 12 6 6 6 5 5 5 8 9 10 8 6 7 5 6 5 5 3 4 5 6 7 7 6 5
6 6 6 6 5 4 5 4 4 5 5 6 6 4 4 5 7 11 12 8 8 6 6 5 5 8 8 10 9 9 11 8 5 5 5 6 6 6 7 7 8 8 6
6 8 8 6 6 5 6 5 3 4 4 5 5 5 4 3 3 8 11 10 10 5 4 6 7 8 7 6 12 9 7 6 6 5 7 7 7 7 6 4 6 8 8
9 8 7 8 7 6 4 4 5 6 5 4 4 3 3 3 4 4 4 4 4 6 6 4 5 6 7 5 4 5 5 6 8 8 8 8 5 4 7 6 5 6 5
10 8 8 8 9 7 6 7 7 5 5 5 5 5 5 5 6 8 8 7 7 6 5 2 3 4 6 7 7 7 6 6 7 7 8 8 7 7 8 6 6 5 7
9 8 8 8 8 7 7 6 7 7 9 10 6 6 6 7 9 13 12 12 9 14 3 4 7 8 9 9 9 9 8 9 8 7 6 8 9 9 8 5 6 7 8
8 10 9 8 8 8 8 7 7 5 8 10 10 11 11 8 11 10 13 7 11 11 6 7 8 8 10 10 10 10 10 9 10 9 9 8 8 8 7 7 7 7 9
16 14 10 9 8 8 8 8 7 7 7 7 10 10 12 13 12 12 10 11 4 7 7 9 9 9 9 9 9 10 10 8 8 9 9 9 9 9 8 9 8 10 10
10 7 7 7 8 8 8 7 7 7 7 5 3 5 12 11 6 9 14 7 8 8 9 9 9 9 9 9 9 9 10 9 9 9 10 10 9 8 9 10 10 11 11
7 7 4 7 6 8 7 8 7 8 7 7 7 8 3 5 5 7 8 8 8 10 9 10 10 10 10 10 9 9 9 9 9 10 10 10 9 10 11 11 10 11 10
7 10 17 7 6 7 7 8 8 7 8 7 8 8 11 8 9 9 8 9 10 10 11 11 10 11 10 11 10 10 12 11 11 11 10 10 10 11 11 11 11 10 11
7 7 8 8 6 6 8 7 7 7 8 8 8 8 13 8 8 9 9 10 11 12 10 11 11 11 11 11 11 11 13 13 12 11 11 12 11 11 11 12 11 11 11
6 6 6 7 6 7 7 7 7 8 8 9 9 8 7 9 10 10 9 10 9 9 9 8 10 10 11 12 12 13 13 13 14 12 12 12 11 11 11 12 13 13 11
5 6 6 5 4 5 5 5 6 9 9 10 9 9 9 10 11 12 11 9 9 10 10 10 11 16 13 14 12 13 13 14 12 13 17 12 12 12 12 13 13 15 13
5 6 7 7 6 6 7 6 6 8 8 9 10 8 8 8 8 10 10 9 9 9 10 10 10 15 19 21 17 18 18 17 16 13 10 14 15 16 14 12 13 13 15
4 6 6 5 6 6 6 7 8 8 8 7 7 8 8 9 8 7 6 5 5 7 10 9 12 18 18 16 19 20 14 17 15 17 12 11 12 12 12 15 19 12 14
Wind_Direction
265 262 236 227 200 176 193 196 187 155 164 167 159 144 230 214 212 180 185 196 201 193 196 190 200 185 185 176 178 179 148 138 114 197 175 199 188 178 175 167 193 203 234
23 305 258 223 186 191 197 190 170 177 190 199 174 159 187 190 204 180 182 187 185 188 195 177 192 194 199 181 183 181 160 161 144 159 194 186 181 184 162 178 196 215 215
111 334 297 249 204 203 197 188 184 163 229 212 155 146 195 194 192 176 174 187 185 198 190 191 180 174 180 175 167 163 169 164 157 134 176 178 142 157 133 141 183 206 215
349 328 287 277 225 189 186 172 156 191 188 118 143 157 179 188 193 174 179 188 178 187 202 199 168 174 179 170 158 158 144 158 170 148 137 127 150 118 144 157 169 188 211
319 312 295 283 245 191 181 177 189 186 191 181 165 168 175 178 179 189 183 177 172 181 180 193 175 186 181 167 152 156 139 145 155 155 139 133 140 154 180 149 143 143 161
262 284 287 290 256 197 177 172 182 188 182 173 171 179 187 186 185 186 176 173 174 181 186 176 170 188 184 170 158 161 173 152 147 143 130 144 166 165 146 152 129 145 184
233 257 261 280 242 200 176 169 183 192 176 177 164 176 198 192 182 182 182 171 181 188 186 166 181 184 166 169 149 160 180 140 106 146 150 182 163 183 144 152 173 175 190
220 245 245 275 247 210 187 178 178 185 188 188 189 182 193 189 182 188 190 191 183 184 182 173 178 171 174 160 147 144 154 152 160 169 188 174 153 149 161 176 163 134 101
221 227 244 237 254 203 196 181 172 180 195 197 184 190 194 182 178 194 180 180 182 187 178 166 170 173 168 151 165 178 194 206 178 213 218 203 153 156 155 129 139 149 181
217 211 222 235 235 208 197 171 148 161 198 191 193 189 194 188 182 183 178 168 175 174 171 164 180 182 162 165 180 186 206 242 204 188 202 212 219 198 187 202 164 180 157
190 188 200 214 226 195 189 173 167 174 175 184 184 179 179 175 179 175 172 169 168 169 165 184 189 193 169 175 189 186 208 217 205 204 216 212 204 202 210 213 200 194 182
188 186 195 199 212 198 203 179 167 171 175 175 176 166 165 176 171 178 177 168 150 157 180 195 188 185 190 195 185 210 215 196 199 209 216 226 222 219 218 215 212 220 228
198 193 190 189 199 191 193 184 173 172 188 184 176 164 162 154 157 159 177 173 162 172 185 195 174 195 213 208 210 218 175 211 214 211 224 232 225 223 208 200 213 222 233
198 204 190 184 190 188 189 185 193 194 199 185 166 171 169 165 181 178 178 171 173 204 189 191 199 192 190 203 219 196 201 204 209 221 225 230 213 190 208 202 207 206 223
205 194 205 187 187 189 195 194 198 213 195 181 184 175 172 199 212 189 178 188 200 194 144 159 192 201 214 223 230 231 221 205 207 219 225 228 226 219 222 199 214 206 223
199 205 195 193 185 189 185 202 224 218 201 209 207 180 193 212 168 184 193 203 182 143 156 197 216 212 217 219 217 222 220 216 218 211 210 223 229 226 224 206 211 210 224
239 224 200 194 189 190 188 193 203 212 208 217 202 206 196 193 189 191 203 188 141 160 219 212 220 214 220 219 219 220 223 214 210 213 215 216 219 224 212 218 209 209 228
215 223 201 196 197 192 195 195 193 192 201 207 215 207 217 219 208 191 166 135 144 219 223 226 225 221 223 220 219 220 223 218 203 211 213 215 211 217 219 226 217 218 226
207 206 224 201 205 198 196 192 195 196 206 219 185 199 223 222 231 157 166 221 230 224 217 224 223 221 219 218 221 222 222 221 213 210 212 213 214 208 220 226 226 217 218
195 131 217 224 205 201 187 195 192 202 207 212 204 222 170 127 202 211 209 216 221 232 224 222 221 222 224 221 220 220 221 220 219 217 221 212 208 204 219 223 219 224 218
184 181 187 196 202 206 202 196 203 199 206 211 223 218 189 196 223 222 216 211 222 232 231 229 226 224 226 228 228 228 226 224 219 217 218 215 213 211 214 219 223 220 226
198 195 180 185 173 193 206 201 192 208 220 220 224 225 186 206 218 220 217 220 221 225 228 224 230 231 230 223 223 224 224 226 225 217 217 216 213 214 215 216 219 222 224
181 171 167 165 161 178 197 206 200 213 221 227 234 230 194 215 227 232 234 235 229 230 230 224 232 237 230 228 222 223 225 224 222 215 216 217 217 220 221 223 218 218 217
159 153 166 185 185 220 207 223 223 222 229 237 232 232 226 221 222 228 232 238 231 229 226 222 223 228 234 233 230 226 228 235 224 215 214 215 213 209 216 218 219 222 226
190 193 195 194 215 217 237 236 249 253 246 238 242 242 242 233 233 229 230 228 232 234 239 234 235 235 234 235 235 231 227 220 223 220 215 219 222 221 215 218 215 220 222
180 204 194 189 208 210 209 221 228 226 231 229 225 238 241 248 253 266 275 272 265 256 256 250 245 243 247 243 241 240 233 229 217 222 216 216 221 223 221 219 224 224 218